AB4KN Weather Reports


Display with metric or nautical units.
time (UTC)temp
F
wind
direction
speed
MPH
gust
MPH
rain 1hr
in
rain 24hr
in
rain mn
in
humidity
%
barometer
mb
20260904135305 82 202 0.0 0.0 0.00 0.00 0.00 75 1023.2
20260904134759 82 248 0.0 0.0 0.00 0.00 0.00 75 1023.2
20260904134258 81 286 0.0 0.0 0.00 0.00 0.00 77 1023.2
20260904133753 81 243 0.0 0.0 0.00 0.00 0.00 77 1023.1
20260904133249 80 255 0.0 0.0 0.00 0.00 0.00 78 1023.0
20260904132748 80 255 0.0 0.0 0.00 0.00 0.00 78 1023.0
20260904132244 80 254 0.0 0.0 0.00 0.00 0.00 79 1022.9
20260904131742 80 258 0.0 0.0 0.00 0.00 0.00 80 1023.0
20260904131239 80 254 0.0 0.0 0.00 0.00 0.00 82 1023.1
20260904130738 79 246 0.0 0.0 0.00 0.00 0.00 83 1023.2
20260904130238 79 246 0.0 0.0 0.00 0.00 0.00 84 1023.0
20260904125734 78 272 0.0 0.0 0.00 0.00 0.00 84 1023.1
20260904125229 78 272 0.0 0.0 0.00 0.00 0.00 85 1023.1
20260904124723 77 272 0.0 0.0 0.00 0.00 0.00 85 1023.0
20260904124220 77 272 0.0 0.0 0.00 0.00 0.00 85 1023.1
20260904123714 77 272 0.0 0.0 0.00 0.00 0.00 86 1023.2
20260904123210 76 272 0.0 0.0 0.00 0.00 0.00 86 1023.0
20260904122710 76 272 0.0 0.0 0.00 0.00 0.00 86 1022.9
20260904122205 76 272 0.0 0.0 0.00 0.00 0.00 86 1023.1
20260904121700 75 257 0.0 0.0 0.00 0.00 0.00 86 1023.2
20260904121155 75 257 0.0 0.0 0.00 0.00 0.00 86 1022.7
20260904120652 75 257 0.0 0.0 0.00 0.00 0.00 86 1023.2
20260904120148 75 257 0.0 0.0 0.00 0.00 0.00 86 1023.1
20260904115643 75 257 0.0 0.0 0.00 0.00 0.00 86 1022.7
20260904115138 75 257 0.0 0.0 0.00 0.00 0.00 86 1022.5
20260904114637 75 257 0.0 0.0 0.00 0.00 0.00 86 1022.7
20260904114137 75 257 0.0 0.0 0.00 0.00 0.00 86 1022.7
20260904113632 75 257 0.0 0.0 0.00 0.00 0.00 86 1022.9
20260904113131 75 257 0.0 0.0 0.00 0.00 0.00 86 1022.5
20260904112627 75 257 0.0 0.0 0.00 0.00 0.00 86 1022.4
20260904112123 75 257 0.0 0.0 0.00 0.00 0.00 86 1022.6
20260904111618 75 257 0.0 0.0 0.00 0.00 0.00 86 1022.5
20260904111113 75 257 0.0 0.0 0.00 0.00 0.00 86 1022.4
20260904110608 75 256 0.0 0.0 0.00 0.00 0.00 86 1022.1
20260904105603 75 255 0.0 0.0 0.00 0.00 0.00 85 1022.3
20260904105058 75 255 0.0 0.0 0.00 0.00 0.00 85 1022.1
20260904104553 75 255 0.0 0.0 0.00 0.00 0.00 85 1022.1
20260904104049 76 255 0.0 0.0 0.00 0.00 0.00 85 1022.2
20260904103544 76 255 0.0 0.0 0.00 0.00 0.00 84 1022.2
20260904103041 76 255 0.0 0.0 0.00 0.00 0.00 84 1022.3
20260904102536 76 255 0.0 0.0 0.00 0.00 0.00 84 1022.2
20260904102031 76 255 0.0 0.0 0.00 0.00 0.00 84 1022.2
20260904101528 76 255 0.0 0.0 0.00 0.00 0.00 84 1022.2
20260904101023 76 255 0.0 0.0 0.00 0.00 0.00 84 1022.2
20260904100519 76 255 0.0 0.0 0.00 0.00 0.00 84 1021.9
20260904100014 76 255 0.0 0.0 0.00 0.00 0.00 83 1022.0
20260904095508 76 255 0.0 0.0 0.00 0.00 0.00 83 1021.9
20260904095003 76 255 0.0 0.0 0.00 0.00 0.00 83 1022.0
20260904094458 76 255 0.0 0.0 0.00 0.00 0.00 83 1021.7
20260904093954 77 255 0.0 0.0 0.00 0.00 0.00 83 1021.9
20260904093450 77 255 0.0 0.0 0.00 0.00 0.00 82 1021.9
20260904092944 77 255 0.0 0.0 0.00 0.00 0.00 82 1021.9
20260904092441 77 255 0.0 0.0 0.00 0.00 0.00 82 1021.9
20260904091936 77 255 0.0 0.0 0.00 0.00 0.00 82 1021.9
20260904091433 77 255 0.0 0.0 0.00 0.00 0.00 82 1021.8
20260904090926 77 255 0.0 0.0 0.00 0.00 0.00 81 1021.9
20260904090423 77 255 0.0 0.0 0.00 0.00 0.00 81 1021.8
20260904085917 77 255 0.0 0.0 0.00 0.00 0.00 81 1022.0
20260904085413 77 255 0.0 0.0 0.00 0.00 0.00 81 1021.8
20260904084907 77 254 0.0 0.0 0.00 0.00 0.00 81 1022.0
20260904084403 78 254 0.0 0.0 0.00 0.00 0.00 81 1022.1
20260904083853 78 254 0.0 0.0 0.00 0.00 0.00 81 1022.1
20260904083350 78 249 0.0 0.0 0.00 0.00 0.00 80 1022.2
20260904082845 78 241 0.0 0.0 0.00 0.00 0.00 80 1022.2
20260904082339 78 248 0.0 0.0 0.00 0.00 0.00 80 1022.0
20260904081835 78 248 0.0 0.0 0.00 0.00 0.00 80 1022.0
20260904081330 78 262 0.0 0.0 0.00 0.00 0.00 79 1021.9
20260904080827 78 268 0.0 0.0 0.00 0.00 0.00 79 1021.9
20260904080321 78 262 0.0 0.0 0.00 0.00 0.00 79 1021.9
20260904075818 78 262 0.0 0.0 0.00 0.00 0.00 79 1021.9
20260904075312 78 262 0.0 0.0 0.00 0.00 0.00 79 1022.1
20260904074811 79 242 0.0 0.0 0.00 0.00 0.00 78 1021.8
20260904074306 79 262 0.0 0.0 0.00 0.00 0.00 78 1022.0
20260904073802 79 247 0.0 0.0 0.00 0.00 0.00 77 1021.9
20260904073257 79 214 2.0 2.0 0.00 0.00 0.00 78 1021.8
20260904072754 79 263 0.0 0.0 0.00 0.00 0.00 78 1022.0
20260904072252 79 263 0.0 0.0 0.00 0.00 0.00 78 1022.0
20260904071748 79 263 0.0 0.0 0.00 0.00 0.00 77 1022.0
20260904071249 79 266 0.0 0.0 0.00 0.00 0.00 77 1022.0
20260904070743 79 266 0.0 0.0 0.00 0.00 0.00 77 1021.9
20260904070242 79 254 0.0 0.0 0.00 0.00 0.00 77 1022.2
20260904065737 79 254 0.0 0.0 0.00 0.00 0.00 76 1021.9
20260904065234 79 254 0.0 0.0 0.00 0.00 0.00 76 1021.8
20260904064734 80 254 0.0 0.0 0.00 0.00 0.00 76 1021.9
20260904064229 80 161 0.0 0.0 0.00 0.00 0.00 75 1022.1
20260904063725 80 253 0.0 0.0 0.00 0.00 0.00 75 1022.0
20260904063221 80 253 0.0 0.0 0.00 0.00 0.00 75 1022.1
20260904062717 80 253 0.0 0.0 0.00 0.00 0.00 74 1022.1
20260904062212 80 253 0.0 0.0 0.00 0.00 0.00 74 1022.0
20260904061708 80 253 0.0 0.0 0.00 0.00 0.00 74 1022.0
20260904061204 80 252 0.0 0.0 0.00 0.00 0.00 74 1022.0
20260904060701 80 252 0.0 0.0 0.00 0.00 0.00 74 1021.9
20260904060156 79 252 0.0 0.0 0.00 0.00 0.00 77 1021.8
20260904055650 79 252 0.0 0.0 0.00 0.00 0.00 77 1022.0
20260904055146 79 252 0.0 0.0 0.00 0.00 0.00 77 1021.9
20260904054641 79 252 0.0 0.0 0.00 0.00 0.00 78 1022.1
20260904054138 79 252 0.0 0.0 0.00 0.00 0.00 77 1022.0
20260904053638 79 252 0.0 0.0 0.00 0.00 0.00 77 1022.2
20260904053132 80 252 0.0 0.0 0.00 0.00 0.00 77 1022.0
20260904052629 80 252 0.0 0.0 0.00 0.00 0.00 76 1022.1
20260904052125 80 252 0.0 0.0 0.00 0.00 0.00 76 1021.9
20260904051621 80 252 0.0 0.0 0.00 0.00 0.00 76 1022.0
20260904051115 80 252 0.0 0.0 0.00 0.00 0.00 76 1022.1
20260904050611 80 252 0.0 0.0 0.00 0.00 0.00 76 1022.1
20260904050107 80 252 0.0 0.0 0.00 0.00 0.00 76 1022.1
20260904045601 80 252 0.0 0.0 0.00 0.00 0.00 75 1021.9
20260904045056 80 252 0.0 0.0 0.00 0.00 0.00 75 1022.2
20260904044552 80 252 0.0 0.0 0.00 0.00 0.00 75 1021.9
20260904044048 80 252 0.0 0.0 0.00 0.00 0.00 75 1022.0
20260904043544 81 252 0.0 0.0 0.00 0.00 0.00 75 1022.2
20260904043040 81 252 0.0 0.0 0.00 0.00 0.00 75 1022.1
20260904042536 81 252 0.0 0.0 0.00 0.00 0.00 75 1022.0
20260904042031 81 252 0.0 0.0 0.00 0.00 0.00 74 1022.1
20260904041527 81 252 0.0 0.0 0.00 0.00 0.00 74 1022.1
20260904041023 81 252 0.0 0.0 0.00 0.00 0.00 73 1021.8
20260904040522 81 252 0.0 0.0 0.00 0.00 0.00 73 1022.1
20260904040020 82 252 0.0 0.0 0.00 0.00 0.00 73 1022.2
20260904035520 82 252 0.0 0.0 0.00 0.00 0.00 73 1022.2
20260904035019 82 252 0.0 0.0 0.00 0.00 0.00 72 1022.2
20260904034514 82 252 0.0 0.0 0.00 0.00 0.00 72 1022.2
20260904034009 82 252 0.0 0.0 0.00 0.00 0.00 71 1022.3
20260904033505 82 252 0.0 0.0 0.00 0.00 0.00 71 1022.2
20260904033002 83 252 0.0 0.0 0.00 0.00 0.00 71 1022.2
20260904032457 83 252 0.0 0.0 0.00 0.00 0.00 69 1022.2
20260904031956 83 252 0.0 0.0 0.00 0.00 0.00 70 1022.3
20260904031451 83 252 0.0 0.0 0.00 0.00 0.00 69 1022.0
20260904030948 84 252 0.0 0.0 0.00 0.00 0.00 68 1021.9
20260904030443 84 252 0.0 0.0 0.00 0.00 0.00 67 1022.1
20260904025937 85 252 0.0 0.0 0.00 0.00 0.00 65 1022.4
20260904025434 85 252 0.0 0.0 0.00 0.00 0.00 65 1022.2
20260904024934 84 253 0.0 0.0 0.00 0.00 0.00 66 1022.3
20260904024429 84 253 0.0 0.0 0.00 0.00 0.00 67 1022.1
20260904023925 84 253 0.0 0.0 0.00 0.00 0.00 66 1022.2
20260904023421 85 253 0.0 0.0 0.00 0.00 0.00 65 1022.2
20260904022920 85 253 0.0 0.0 0.00 0.00 0.00 64 1022.1
20260904022417 85 246 0.0 0.0 0.00 0.00 0.00 64 1022.2
20260904021913 85 256 0.0 0.0 0.00 0.00 0.00 64 1022.2
20260904021409 85 256 0.0 0.0 0.00 0.00 0.00 64 1021.9
20260904020903 85 255 0.0 0.0 0.00 0.00 0.00 64 1022.0
20260904020359 84 257 0.0 0.0 0.00 0.00 0.00 65 1022.1
20260904015857 85 257 0.0 0.0 0.00 0.00 0.00 66 1022.0
20260904015353 85 257 0.0 0.0 0.00 0.00 0.00 66 1022.0
20260904014851 85 257 0.0 0.0 0.00 0.00 0.00 66 1021.6
20260904014347 85 257 0.0 0.0 0.00 0.00 0.00 65 1021.4
20260904013842 85 257 0.0 0.0 0.00 0.00 0.00 65 1021.7
20260904013338 86 257 0.0 0.0 0.00 0.00 0.00 64 1021.5
20260904012834 86 256 0.0 0.0 0.00 0.00 0.00 64 1021.6
20260904012329 86 256 0.0 0.0 0.00 0.00 0.00 63 1021.5
20260904011828 86 256 0.0 0.0 0.00 0.00 0.00 62 1021.6
20260904011323 86 256 0.0 0.0 0.00 0.00 0.00 62 1021.6
20260904010817 86 256 0.0 0.0 0.00 0.00 0.00 62 1021.2
20260904010315 86 256 0.0 0.0 0.00 0.00 0.00 61 1021.4
20260904005809 86 256 0.0 0.0 0.00 0.00 0.00 60 1021.4
20260904005306 87 256 0.0 0.0 0.00 0.00 0.00 60 1021.3
20260904004759 87 256 0.0 0.0 0.00 0.00 0.00 59 1020.9
20260904004256 87 256 0.0 0.0 0.00 0.00 0.00 59 1021.0
20260904003750 87 255 0.0 0.0 0.00 0.00 0.00 58 1021.1
20260904003247 88 254 0.0 0.0 0.00 0.00 0.00 58 1021.0
20260904002742 88 254 0.0 0.0 0.00 0.00 0.00 57 1021.2
20260904002239 89 254 0.0 0.0 0.00 0.00 0.00 56 1021.3
20260904001738 89 254 0.0 0.0 0.00 0.00 0.00 55 1020.9
20260904001232 90 254 0.0 0.0 0.00 0.00 0.00 55 1021.0
20260904000727 91 254 0.0 0.0 0.00 0.00 0.00 53 1021.0
20260904000222 91 254 0.0 0.0 0.00 0.00 0.00 51 1020.7
20260903235721 91 254 0.0 0.0 0.00 0.00 0.00 51 1020.8
20260903235218 92 254 0.0 0.0 0.00 0.00 0.00 50 1020.8
20260903234712 92 255 0.0 0.0 0.00 0.00 0.00 49 1020.5
20260903234209 92 255 0.0 0.0 0.00 0.00 0.00 48 1020.8
20260903233704 93 265 0.0 0.0 0.00 0.00 0.00 48 1020.8
20260903233200 93 244 0.0 0.0 0.00 0.00 0.00 47 1020.5
20260903232659 93 255 0.0 0.0 0.00 0.00 0.00 47 1020.4
20260903232155 93 284 0.0 0.0 0.00 0.00 0.00 47 1020.4
20260903231654 94 284 0.0 0.0 0.00 0.00 0.00 46 1020.2
20260903231149 94 255 0.0 0.0 0.00 0.00 0.00 45 1020.3
20260903230645 95 255 0.0 0.0 0.00 0.00 0.00 44 1020.4
20260903230144 95 284 0.0 0.0 0.00 0.00 0.00 44 1020.1
20260903225641 95 177 0.0 0.0 0.00 0.00 0.00 43 1020.1
20260903225137 95 176 0.0 0.0 0.00 0.00 0.00 43 1020.2
20260903224633 95 206 0.0 0.0 0.00 0.00 0.00 43 1020.2
20260903224129 96 257 2.0 3.0 0.00 0.00 0.00 43 1020.0
20260903223624 96 119 0.0 0.0 0.00 0.00 0.00 43 1020.3
20260903223122 96 234 0.0 0.0 0.00 0.00 0.00 43 1020.0
20260903222617 96 214 0.0 0.0 0.00 0.00 0.00 44 1020.1
20260903222116 96 288 0.0 0.0 0.00 0.00 0.00 44 1020.1
20260903221612 96 258 0.0 0.0 0.00 0.00 0.00 43 1019.9
20260903221109 96 263 0.0 0.0 0.00 0.00 0.00 43 1020.0
20260903220609 96 194 0.0 0.0 0.00 0.00 0.00 44 1020.1
20260903215602 96 253 1.0 2.0 0.00 0.00 0.00 44 1020.2
20260903215056 96 301 1.0 2.0 0.00 0.00 0.00 44 1020.2
20260903214556 97 135 0.0 0.0 0.00 0.00 0.00 43 1020.1
20260903214051 97 282 0.0 0.0 0.00 0.00 0.00 44 1020.1
20260903213546 97 122 3.0 9.0 0.00 0.00 0.00 44 1020.0
20260903213042 97 273 0.0 0.0 0.00 0.00 0.00 45 1020.2
20260903212538 96 281 0.0 0.0 0.00 0.00 0.00 45 1020.2
20260903212033 97 243 0.0 0.0 0.00 0.00 0.00 44 1020.3
20260903211528 98 158 5.0 7.0 0.00 0.00 0.00 43 1020.5
20260903211024 97 261 0.0 0.0 0.00 0.00 0.00 44 1020.4
20260903210519 97 263 0.0 0.0 0.00 0.00 0.00 45 1020.5
20260903210015 97 181 0.0 0.0 0.00 0.00 0.00 44 1020.4
20260903205514 97 248 0.0 0.0 0.00 0.00 0.00 44 1020.3
20260903205009 97 188 3.0 7.0 0.00 0.00 0.00 44 1020.6
20260903204504 97 228 2.0 2.0 0.00 0.00 0.00 43 1020.6
20260903204000 97 147 0.0 0.0 0.00 0.00 0.00 43 1020.6
20260903203455 98 302 0.0 0.0 0.00 0.00 0.00 44 1020.5
20260903202954 97 280 0.0 0.0 0.00 0.00 0.00 44 1020.7
20260903202451 97 130 1.0 5.0 0.00 0.00 0.00 43 1020.9
20260903201945 96 126 0.0 0.0 0.00 0.00 0.00 44 1020.9
20260903201440 97 244 0.0 0.0 0.00 0.00 0.00 44 1020.8
20260903200939 98 161 4.0 5.0 0.00 0.00 0.00 44 1021.0
20260903200434 98 333 0.0 0.0 0.00 0.00 0.00 43 1021.1
20260903195929 97 320 0.0 0.0 0.00 0.00 0.00 43 1021.4
20260903195426 96 255 0.0 0.0 0.00 0.00 0.00 44 1021.3
20260903194920 97 280 0.0 0.0 0.00 0.00 0.00 46 1021.2
20260903194416 97 83 3.0 3.0 0.00 0.00 0.00 43 1021.4
20260903193911 96 280 0.0 0.0 0.00 0.00 0.00 44 1021.4
20260903193408 96 271 0.0 0.0 0.00 0.00 0.00 44 1021.4
20260903192902 96 325 2.0 2.0 0.00 0.00 0.00 45 1021.6
20260903192358 97 310 0.0 0.0 0.00 0.00 0.00 44 1021.7
20260903191854 97 188 0.0 0.0 0.00 0.00 0.00 44 1021.4
20260903191350 97 227 3.0 3.0 0.00 0.00 0.00 44 1021.6
20260903190849 96 267 0.0 0.0 0.00 0.00 0.00 45 1021.8
20260903190344 95 163 3.0 3.0 0.00 0.00 0.00 46 1021.8
20260903185843 96 281 0.0 0.0 0.00 0.00 0.00 48 1021.7
20260903185338 94 285 0.0 0.0 0.00 0.00 0.00 49 1021.8
20260903184835 94 308 0.0 0.0 0.00 0.00 0.00 49 1021.9
20260903184331 94 288 0.0 0.0 0.00 0.00 0.00 50 1022.1
20260903183826 95 272 0.0 0.0 0.00 0.00 0.00 49 1022.1
20260903183321 95 276 0.0 0.0 0.00 0.00 0.00 48 1022.2
20260903182820 95 239 1.0 2.0 0.00 0.00 0.00 48 1022.2
20260903182320 95 134 0.0 2.0 0.00 0.00 0.00 46 1022.5
20260903181820 95 268 0.0 0.0 0.00 0.00 0.00 49 1022.3
20260903181315 95 304 0.0 0.0 0.00 0.00 0.00 49 1022.3
20260903180814 96 197 3.0 3.0 0.00 0.00 0.00 48 1022.3
20260903180313 96 265 0.0 0.0 0.00 0.00 0.00 48 1022.4
20260903175808 98 184 0.0 0.0 0.00 0.00 0.00 44 1022.1
20260903175307 98 131 4.0 9.0 0.00 0.00 0.00 44 1022.5
20260903174801 97 223 0.0 0.0 0.00 0.00 0.00 46 1022.5
20260903174257 97 175 4.0 7.0 0.00 0.00 0.00 47 1022.6
20260903173751 97 253 0.0 0.0 0.00 0.00 0.00 48 1022.7
20260903173247 96 172 0.0 0.0 0.00 0.00 0.00 47 1022.7
20260903172742 97 188 0.0 0.0 0.00 0.00 0.00 47 1022.7
20260903172237 96 49 0.0 0.0 0.00 0.00 0.00 48 1022.7
20260903171732 96 147 5.0 9.0 0.00 0.00 0.00 48 1023.0
20260903171228 95 214 5.0 7.0 0.00 0.00 0.00 50 1023.2
20260903170726 96 178 3.0 5.0 0.00 0.00 0.00 49 1022.9
20260903170222 96 139 0.0 0.0 0.00 0.00 0.00 50 1023.1
20260903165720 95 110 0.0 0.0 0.00 0.00 0.00 49 1023.2
20260903165215 94 261 0.0 0.0 0.00 0.00 0.00 52 1023.1
20260903164709 95 266 0.0 0.0 0.00 0.00 0.00 52 1023.4
20260903164206 94 217 2.0 3.0 0.00 0.00 0.00 52 1023.3
20260903163705 95 300 0.0 0.0 0.00 0.00 0.00 52 1023.6
20260903163202 95 211 1.0 2.0 0.00 0.00 0.00 52 1023.5
20260903162657 95 296 0.0 0.0 0.00 0.00 0.00 52 1023.5
20260903162153 95 262 0.0 2.0 0.00 0.00 0.00 52 1023.6
20260903161649 95 222 0.0 0.0 0.00 0.00 0.00 52 1023.6
20260903161143 95 238 1.0 2.0 0.00 0.00 0.00 53 1023.7
20260903160639 94 135 0.0 0.0 0.00 0.00 0.00 53 1023.9
20260903160133 93 292 0.0 0.0 0.00 0.00 0.00 54 1023.9
20260903155632 92 150 2.0 3.0 0.00 0.00 0.00 55 1023.9
20260903155127 92 303 0.0 0.0 0.00 0.00 0.00 60 1024.1
20260903154623 92 292 0.0 0.0 0.00 0.00 0.00 59 1023.7
20260903154119 91 309 0.0 0.0 0.00 0.00 0.00 60 1024.0
20260903153615 91 265 0.0 0.0 0.00 0.00 0.00 61 1024.1
20260903153110 91 254 0.0 2.0 0.00 0.00 0.00 61 1023.8
20260903152606 91 293 0.0 0.0 0.00 0.00 0.00 63 1023.8
20260903152103 90 248 0.0 0.0 0.00 0.00 0.00 62 1023.9
20260903151602 89 264 1.0 2.0 0.00 0.00 0.00 62 1023.9
20260903151057 89 287 0.0 0.0 0.00 0.00 0.00 63 1023.8
20260903150556 88 287 0.0 0.0 0.00 0.00 0.00 64 1023.9
20260903150052 88 284 0.0 0.0 0.00 0.00 0.00 64 1023.8
20260903145551 88 287 0.0 0.0 0.00 0.00 0.00 65 1023.8
20260903145046 88 283 0.0 0.0 0.00 0.00 0.00 66 1023.8
20260903144545 88 287 0.0 0.0 0.00 0.00 0.00 65 1023.7
20260903144042 87 246 0.0 2.0 0.00 0.00 0.00 65 1023.7
20260903143538 87 275 0.0 0.0 0.00 0.00 0.00 67 1023.7
20260903143033 86 275 0.0 0.0 0.00 0.00 0.00 68 1023.7
20260903142528 86 275 0.0 0.0 0.00 0.00 0.00 68 1023.7
20260903142026 86 275 0.0 0.0 0.00 0.00 0.00 69 1023.9
20260903141521 85 275 0.0 0.0 0.00 0.00 0.00 69 1023.9
20260903141016 85 265 0.0 0.0 0.00 0.00 0.00 71 1023.9
20260903140511 84 274 0.0 0.0 0.00 0.00 0.00 71 1023.7
20260903140007 84 274 0.0 0.0 0.00 0.00 0.00 73 1023.7